Regional Weather Roundup
Issued by NWS Albany, NY

Home | Current Version | Previous Version | Text Only | Print | Product List | Glossary On
Versions: 1 2 3 4 5 6 7 8 9 10 11 12 13 14 15 16 17 18 19 20 21 22 23 24 25 26 27 28 29 30 31 32 33 34 35 36 37 38 39 40 41 42 43 44 45 46 47 48 49 50
401
ASUS41 KALY 300810
RWRALY

NEW YORK STATE HOURLY WEATHER ROUNDUP
NATIONAL WEATHER SERVICE ALBANY NY
400 AM EDT SAT APR 30 2016

NOTE: "FAIR" INDICATES FEW OR NO CLOUDS BELOW 12,000 FEET WITH NO
SIGNIFICANT WEATHER AND/OR NO OBSTRUCTIONS TO VISIBILITY.

NYZ032-033-038>043-046>054-057>066-NYZ062>081-082-084-300900-
EAST


CITY           SKY/WX    TMP DP  RH WIND       PRES   REMARKS
ALBANY         CLOUDY    46  38  73 S3        30.14F
GLENS FALLS    CLEAR     42  24  49 CALM      30.14F
POUGHKEEPSIE   CLOUDY    46  42  86 CALM      30.15F
NEWBURGH       MOCLDY    43  43 100 CALM      30.16F FOG
MONTGOMERY     CLOUDY    44  42  93 CALM      30.15S
WHITE PLAINS   CLOUDY    44  40  85 N5        30.15R
ISLIP          CLOUDY    45  38  76 NE6       30.15R
NEW YORK CITY  CLOUDY    48  39  71 NE10      30.16R
CENTRAL PARK   CLOUDY    47  36  65 VRB7      30.18R
$$

NYZ005>009-017-018-044>046-055-056-300900-
CENTRAL


CITY           SKY/WX    TMP DP  RH WIND       PRES   REMARKS
FULTON         CLOUDY    46  42  86 CALM      30.16R
SYRACUSE       CLOUDY    46  43  89 W7        30.15R
ROME           PTCLDY    36  34  92 CALM      30.16R
ELMIRA         CLOUDY    43  40  89 CALM      30.16R
BINGHAMTON     CLOUDY    40  38  93 CALM      30.14R
MONTICELLO     CLOUDY    37  36  93 CALM      30.14S
$$

NYZ026>034-041>043-087-300900-
NORTH


CITY           SKY/WX    TMP DP  RH WIND       PRES   REMARKS
WATERTOWN      PTCLDY    32  26  78 NE3       30.16R
FORT DRUM      NOT AVBL
MASSENA        PTCLDY    29  25  85 CALM      30.20R
SARANAC LAKE   CLEAR     24  17  74 CALM      30.12R
PLATTSBURGH    CLEAR     38  15  39 NW6       30.17F WCI  33
$$

NYZ001>004-010>016-019>021-085-300900-
WEST


CITY           SKY/WX    TMP DP  RH WIND       PRES   REMARKS
NIAGARA FALLS  CLOUDY    43  33  68 NE12      30.15F
BUFFALO        CLOUDY    44  35  70 NE8       30.15S
DUNKIRK        CLOUDY    39  38  96 SW5       30.17R
JAMESTOWN      CLOUDY    41  37  87 NW3       30.12R
WELLSVILLE     FOG       39  39 100 CALM      30.12S VSB<1/4
ROCHESTER      CLOUDY    45  37  73 CALM      30.18R
PENN YAN       CLOUDY    44  43  96 CALM      30.17R
$$

             KEY
       WCI = WIND CHILL INDEX
       VSB = VISIBILITY
       HX  = HEAT INDEX
$$




USA.gov is the U.S. government's official web portal to all federal, state and local government web resources and services.